STARLINK-4546, 53422

Orbit data source: Space-Track

STARLINK-4546, 53422 is a payload satellite owned by SpaceX/Seattle (US) in LEO that was launched on Wed, 10 Aug 2022 UTC via an FALCON 9 launch vehicle from the Air Force Eastern Test Range (AFETR). Payload-class satellites include a variety of spacecraft equipped with specific instruments for various scientific and technological missions. These include communications satellites like Starlink; space stations such as the ISS; scientific satellites like the Hubble; Earth observation satellites from companies like Planet Labs, Umbra, and HawkEye 360; GPS; miniature CubeSats for education and research; and military/defense satellites.

Loading next visibility...
Identifier
53422, 2022-097AL
Orbit
LEO
Country
Flag of USUS
Related business
Manufacturer
SpaceX/Seattle
Mission
Operational Commercial Communications
Bus & Motor
STARLINK, Unknown motor
Mass
297 kg wet, ~275 kg dry
Launch date (UTC)
2022-08-10 (4 years ago)
Launch vehicle
FALCON 9
Launch site
Air Force Eastern Test Range (AFETR)
Object type
Payload
Rocket body
Debris
Shape & HBR
Box + 1 Pan, 10.1 m
Radar Cross Section
13.562 m², Large (>1 m²)

Expand to show TLE details & history
Last TLE update: 22 hours ago

TLE from 22 hours ago
0 STARLINK-4546
1 53422U 22097AL  26144.11291576  .00001002  00000-0  81035-4 0  9999
2 53422  53.2152 135.5337 0001158  79.0168 281.0954 15.08844313210031
Epoch: 2026-05-24T02:42Z
TLE epoch observation values (Epoch: 2026-05-24T02:42:35.921Z)
Latitude
-0.00006°
Longitude
-146.83574°
Altitude
540.473 km
Speed
7.593 km/s
True Right ascension
09h 02m 08s
True Declination
0° 00' 00"
Sunlit
Object was in daylight at epoch
Visualization orbit readout
Latitude
Unknown
Longitude
Unknown
Altitude
Unknown
Speed
Unknown
Apparent Right ascension
Unknown
Apparent Declination
Unknown
Sunlit
N/A
Visualization observer readout
Local Sidereal Time
09:26:28
Azimuth
Unknown
Elevation
Unknown
Doppler factor
Unknown
Orbital elements
Apogee altitude
540.777 km
Perigee altitude
539.174 km
Semi-major axis
6,918.112 km
Eccentricity
0.00012
Inclination
53.2152°
RAAN
135.5337°
Arg. of periapsis
79.0168°
True anomaly
281.08238°
Mean anomaly
281.0954°
Eccentric anomaly
281.08889°
Mean motion
3.77191 °/min
Orbital period
95.44 mins
BSTAR
0.000081035
Loading maneuver chart data...
Computing Atmospheric mass density...
Loading historical data...
Loading historical data...
Loading historical data...
Loading historical data...
Loading historical data...
Loading historical data...
Loading historical data...

Documentation

Showing up to 5 results
|